#timestamp,LO_Frequency,Hit 
1504969215.7,286047006.1,N
1504969235.5,286047005.0,N
1504969255.3,286047003.5,N
1504969275.2,286047005.1,N
1504969295.9,286046999.7,N
1504969315.7,286047002.1,N
1504969335.6,286047002.8,N
1504969355.4,286047002.5,N
1504969375.2,286047003.5,N
1504969395.0,286047004.7,N
1504969396.0,286047004.7,N
1504969415.8,286047005.8,N
1504969435.6,286047002.7,N
1504969455.4,286047000.1,N
1504969475.3,286046998.3,N
1504969495.1,286046995.4,N
1504969515.8,286046995.2,N
1504969535.7,286047001.1,N
1504969555.5,286047004.3,N
1504969575.3,286047004.4,N
1504969595.2,286047005.8,N
1504969615.9,286047004.0,N
1504969635.7,286047000.9,N
1504969655.6,286047002.8,N
1504969675.4,286047002.0,N
1504969695.2,286047000.5,N
1504969715.0,286047002.7,N
1504969716.0,286047002.7,N
1504969735.8,286047003.5,N
1504969755.6,286047002.1,N
1504969775.4,286047004.4,N
1504969795.3,286047000.7,N
1504969815.1,286046998.5,N
1504969835.8,286046999.5,N
1504969855.7,286046997.1,N
1504969875.5,286046995.9,N
1504969895.3,286046993.2,N
1504969915.2,286046990.6,N
1504969935.9,286046990.6,N
1504969955.7,286046994.7,N
1504969975.6,286046996.3,N
1504969995.4,286046992.9,N
1504970015.2,286046990.2,N
1504970035.1,286046990.4,N
1504970036.0,286046990.4,N
1504970055.8,286046992.2,N
1504970075.6,286046991.8,N
1504970095.5,286046993.6,N
1504970115.3,286046994.4,N
1504970135.1,286046991.7,N
1504970155.9,286046992.6,N
1504970175.7,286046992.2,N
1504970195.5,286046991.1,N
1504970215.3,286046991.2,N
1504970235.2,286046989.5,N
1504970255.0,286046987.2,N
1504970255.9,286046987.2,N
1504970275.7,286046986.9,N
1504970295.6,286046989.8,N
1504970315.4,286046990.8,N
1504970335.2,286046990.1,N
1504970355.1,286046990.7,N
1504970356.0,286046990.7,P
1504970375.8,286047000.0,N
1504970395.7,286047002.5,N
1504970415.5,286047000.5,N
1504970435.3,286046999.7,N
1504970455.1,286047001.2,N
1504970475.9,286046996.2,N
1504970495.7,286046995.5,N
1504970515.5,286046998.0,N
1504970535.4,286046995.0,N
1504970555.2,286046997.7,N
1504970575.0,286046995.8,N
1504970575.9,286046995.8,N
1504970595.8,286046997.7,N
1504970615.6,286046997.5,N
1504970635.4,286046995.3,N
1504970655.3,286046996.1,N
1504970675.1,286046996.6,N
1504970676.0,286046996.6,N
1504970695.8,286046999.0,N
1504970715.7,286046999.1,N
1504970735.5,286047000.8,N
1504970755.3,286047003.7,N
1504970775.2,286047001.7,N
1504970795.9,286047001.4,N
1504970815.7,286047001.8,N
1504970835.5,286047005.9,N
1504970855.4,286047002.7,N
1504970875.2,286047000.7,N
1504970895.0,286047001.5,N
1504970895.9,286047001.5,N
1504970915.8,286047002.7,N
1504970935.6,286047002.7,N
1504970955.4,286047001.2,N
1504970975.3,286046997.5,N
1504970995.1,286046999.2,N
1504971015.8,286047000.1,N
1504971035.7,286046998.8,N
1504971055.5,286047001.0,N
1504971075.3,286047004.0,N
1504971095.2,286047002.6,N
1504971115.9,286047003.0,N
1504971135.7,286047007.6,N
1504971155.6,286047005.7,N
1504971175.4,286047006.4,N
1504971195.2,286047006.9,N
1504971215.1,286047005.3,N
1504971216.0,286047005.3,N
1504971235.8,286047005.6,N
1504971255.6,286047005.5,N
1504971275.4,286047004.5,N
1504971295.3,286047007.5,N
1504971315.1,286047005.9,N
1504971335.8,286047005.7,N
1504971355.7,286047005.8,N
1504971375.6,286047007.5,N
1504971395.4,286047004.9,N
1504971415.3,286046999.8,N
1504971435.1,286047001.2,N
1504971455.8,286047001.2,N
1504971475.7,286046997.5,N
1504971495.5,286046994.9,N
1504971515.3,286046999.3,N
1504971535.2,286046997.3,N
1504971555.9,286046995.4,N
1504971575.7,286046996.2,N
1504971595.6,286046993.8,N
1504971615.4,286046995.0,N
1504971635.2,286046996.8,N
1504971655.1,286046999.6,N
1504971656.0,286046999.6,N
1504971675.8,286046995.2,N
1504971695.6,286046997.9,N
1504971715.5,286046996.7,N
1504971735.3,286046999.4,N
1504971755.1,286046997.1,N
1504971775.8,286046995.0,N
1504971795.7,286046993.7,N
1504971815.5,286046997.3,N
1504971835.3,286046999.4,N
1504971855.2,286046994.0,N
1504971875.9,286046991.7,N
1504971895.7,286046995.6,N
1504971915.6,286046995.8,N
1504971935.4,286046995.4,N
1504971955.2,286046996.1,N
1504971975.1,286046991.8,P
1504971976.0,286046991.8,P
1504971995.8,286046996.1,N
1504972015.6,286046996.4,N
1504972035.5,286046994.3,N
1504972055.3,286046993.8,N
1504972075.1,286046994.5,N
1504972095.9,286046994.6,N
1504972115.7,286046993.0,P
1504972135.5,286046997.4,P
1504972155.4,286046995.7,N
1504972175.2,286046995.2,N
1504972195.0,286046995.9,N
1504972195.9,286046995.9,P
1504972215.8,286047000.0,N
1504972235.6,286047001.7,N
1504972255.4,286047002.0,N
1504972275.3,286047002.5,N
1504972295.1,286047002.9,N
1504972296.0,286047002.9,N
1504972315.8,286047003.9,N
1504972335.7,286047001.8,N
1504972355.5,286047003.2,N
1504972375.3,286047001.3,N
1504972395.2,286047002.3,N
1504972415.9,286047002.8,N
1504972435.7,286047000.0,N
1504972455.6,286046997.2,N
1504972475.4,286046994.0,N
1504972495.2,286046992.1,N
1504972515.0,286046992.7,N
1504972515.9,286046992.7,N
1504972535.8,286046991.8,N
1504972555.6,286046992.3,N
1504972575.4,286046990.5,N
1504972595.3,286046989.7,N
1504972615.1,286046988.5,N
1504972616.0,286046988.5,N
1504972635.8,286046987.1,N
1504972655.7,286046987.5,N
1504972675.5,286046989.7,N
1504972695.3,286046991.0,N
1504972715.2,286046990.2,N
1504972735.9,286046992.4,N
1504972755.7,286046995.0,N
1504972775.5,286046998.2,N
1504972795.4,286047004.4,N
